www.pogodaiklimat.ru

Погода и климат >> Архив погоды >> Австрия >> Крумбах


ПОГОДА в Крумбахе

  • Прогноз погоды в Крумбахе
  • Монитор погоды в Крумбахе

АРХИВ ПОГОДЫ в Крумбахе

Время (UTC), дата Ветер
(напр.,м/с)
 
Видим.   Явления Облачность Т
(С)
Тd
(С)
f
(%)
Тe
(С)
Тes
(С)
Комфортность P
(гПа)
Po
(гПа)
Тmin
(С)
Tmax
(С)
R
(мм)
R24
(мм)
S
(см)
04 12.06 З 1 н/о н/о +17.1 +14.0 82 +18 +18 1011.9 950.1
05 12.06 ЮВ 2 н/о н/о +19.8 +13.0 65 +22 +22 комфорт 1012.1 950.8
06 12.06 штиль 0 н/о н/о +20.9 +15.5 71 +24 +24 комфорт 1011.9 950.9 +15.7 +24.2
07 12.06 ЮВ 2 н/о н/о +24.2 +13.4 51 +26 +26 жарко 1011.4 951.0
08 12.06 Ю 3 н/о н/о +25.2 +13.7 49 +27 +27 жарко 1011.4 951.2
09 12.06 ЮВ 4 н/о н/о +25.1 +14.2 51 +28 +28 жарко 1011.6 951.4
10 12.06 ЮВ 4 н/о н/о +26.0 +13.8 47 +28 +28 жарко 1011.2 951.2
11 12.06 ЮВ 4 н/о н/о +26.6 +13.7 45 +29 +29 жарко 1010.8 950.9
12 12.06 Ю 4 н/о н/о +27.8 +12.6 39 +29 +29 жарко 1010.1 950.5
13 12.06 ЮВ 4 н/о н/о +28.5 +13.6 40 +30 +30 жарко 1009.7 950.3
14 12.06 Ю 3 н/о н/о +28.8 +13.8 40 +31 +31 жарко 1009.2 949.9
15 12.06 Ю 3 н/о н/о +28.2 +15.2 45 +31 +31 душно 1009.2 949.8
16 12.06 ЮВ 3 н/о н/о +27.6 +16.0 49 +31 +31 душно 1009.1 949.6
17 12.06 ЮВ 3 н/о н/о +27.3 +16.0 50 +31 +31 душно 1009.1 949.5
18 12.06 ЮВ 2 н/о н/о +25.6 +16.5 57 +29 +29 душно 1009.5 949.6 +20.0 +29.2
19 12.06 ЮВ 3 н/о н/о +24.7 +16.5 60 +28 +28 душно 1010.0 949.9
20 12.06 Ю 3 н/о н/о +24.2 +17.0 64 +28 +28 душно 1011.0 950.7
21 12.06 Ю 4 н/о н/о +23.8 +17.3 67 +28 +28 душно 1011.1 950.8
22 12.06 Ю 2 н/о н/о +23.6 +17.4 68 +27 +27 жарко 1011.2 950.8
23 12.06 штиль 0 н/о н/о +22.0 +17.4 75 +26 +26 душно 1011.5 950.8
00 13.06 штиль 0 н/о н/о +19.7 +17.3 86 +22 +22 комфорт 1011.7 950.5
01 13.06 штиль 0 н/о н/о +19.2 +17.2 88 +21 +21 комфорт 1011.4 950.1
02 13.06 штиль 0 н/о н/о +18.0 +16.9 93 +18 +18 1011.5 950.0
03 13.06 штиль 0 н/о н/о +17.2 +16.3 94 +17 +17 1011.9 950.2
04 13.06 штиль 0 н/о н/о +17.0 +16.4 96 +17 +17 1012.3 950.5
05 13.06 СЗ 1 н/о н/о +19.7 +18.6 93 +24 +24 комфорт 1012.1 950.9
06 13.06 штиль 0 н/о н/о +23.5 +18.6 74 +28 +28 душно 1011.4 951.0 +16.9 +25.7
07 13.06 В 2 н/о н/о +25.3 +19.0 68 +30 +30 душно 1011.2 951.2
08 13.06 Ю 2 н/о н/о +26.8 +14.9 48 +29 +29 жарко 1011.1 951.3
09 13.06 ЮВ 3 н/о н/о +27.2 +16.2 51 +31 +31 душно 1011.1 951.4
10 13.06 ЮВ 3 н/о н/о +27.8 +16.8 51 +31 +31 душно 1010.9 951.3
11 13.06 Ю 3 н/о н/о +28.0 +16.3 49 +31 +31 душно 1010.8 951.3
12 13.06 Ю 3 н/о н/о +28.9 +15.8 45 +32 +32 душно 1010.3 951.0
13 13.06 ЮВ 3 н/о н/о +29.1 +15.7 44 +32 +32 душно 1010.0 950.7
14 13.06 ЮВ 4 н/о н/о +29.5 +12.4 35 +31 +31 жарко 1010.0 950.7
15 13.06 ЮВ 3 н/о н/о +29.4 +11.9 34 +30 +30 жарко 1009.7 950.4
16 13.06 ЮВ 3 н/о н/о +28.7 +12.1 36 +30 +30 жарко 1009.9 950.5
17 13.06 Ю 3 н/о н/о +28.2 +11.7 36 +29 +29 жарко 1010.1 950.5
18 13.06 Ю 3 н/о н/о +27.0 +12.6 41 +29 +29 жарко 1010.3 950.5 +23.3 +29.9
19 13.06 ЮВ 1 н/о н/о +25.5 +12.0 43 +27 +27 жарко 1010.8 950.7
20 13.06 штиль 0 н/о н/о +20.1 +13.5 66 +22 +22 комфорт 1012.9 951.6
21 13.06 штиль 0 н/о н/о +18.8 +13.4 71 +20 +20 1013.2 951.6
22 13.06 штиль 0 н/о н/о +16.9 +13.2 79 +17 +17 1014.1 952.1
23 13.06 штиль 0 н/о н/о +17.2 +12.9 76 +17 +17 1014.3 952.3
00 14.06 штиль 0 н/о н/о +16.1 +13.2 83 +16 +16 1014.9 952.7
01 14.06 штиль 0 н/о н/о +15.7 +13.2 85 +15 +15 1015.0 952.7
02 14.06 штиль 0 н/о н/о +14.8 +13.0 89 +14 +14 1015.4 952.9
03 14.06 штиль 0 н/о н/о +14.4 +12.8 90 +14 +14 1016.5 953.8
04 14.06 СЗ 1 н/о н/о +15.8 +14.1 90 +16 +16 1017.0 954.6
05 14.06 штиль 0 н/о н/о +17.8 +15.7 88 +18 +18 1017.0 955.1
06 14.06 СЗ 1 н/о н/о +23.7 +15.5 60 +27 +27 жарко 1016.1 955.4 +14.3 +27.0
07 14.06 СЗ 1 н/о н/о +24.6 +15.6 57 +28 +28 душно 1017.0 956.4
08 14.06 З 2 н/о н/о +25.8 +15.3 52 +29 +29 душно 1016.8 956.5
09 14.06 З 1 н/о н/о +27.1 +14.4 46 +30 +30 душно 1016.7 956.6
10 14.06 СВ 1 н/о н/о +28.2 +16.2 48 +31 +31 душно 1016.6 956.8
11 14.06 ЮВ 3 н/о н/о +28.5 +15.1 44 +31 +31 душно 1016.6 956.8
12 14.06 ЮВ 3 н/о н/о +29.5 +17.0 47 +33 +33 душно 1016.0 956.5
13 14.06 ЮВ 2 н/о н/о +29.3 +17.2 48 +33 +33 душно 1015.8 956.2
14 14.06 В 3 н/о н/о +29.7 +16.9 46 +33 +33 душно 1015.3 955.8
15 14.06 ЮВ 3 н/о н/о +30.2 +15.2 40 +33 +33 душно 1014.9 955.5
16 14.06 В 3 н/о н/о +28.9 +18.1 52 +34 +34 очень
душно
1015.0 955.4
17 14.06 В 3 н/о н/о +28.2 +18.0 54 +33 +33 очень
душно
1014.9 955.2
18 14.06 Ю 2 н/о н/о +28.1 +14.7 44 +31 +31 душно 1014.9 955.1 +22.7 +30.4
19 14.06 Ю 1 н/о н/о +26.3 +15.1 50 +29 +29 жарко 1015.3 955.1
20 14.06 штиль 0 н/о н/о +24.4 +15.6 58 +27 +27 жарко 1016.1 955.5
21 14.06 СВ 1 н/о н/о +21.9 +16.2 70 +26 +26 душно 1016.5 955.4
22 14.06 З 1 н/о н/о +21.5 +15.4 68 +25 +25 комфорт 1016.2 955.1
23 14.06 штиль 0 н/о н/о +19.6 +15.5 77 +21 +21 комфорт 1016.2 954.7
00 15.06 штиль 0 н/о н/о +18.9 +15.4 80 +20 +20 1015.8 954.2
01 15.06 штиль 0 н/о н/о +18.3 +15.4 83 +19 +19 1015.6 953.8
02 15.06 штиль 0 н/о н/о +19.0 +15.5 80 +20 +20 1015.0 953.4
03 15.06 штиль 0 н/о н/о +18.4 +15.3 82 +19 +19 1015.0 953.3
04 15.06 СЗ 1 н/о н/о +19.0 +15.9 82 +21 +21 комфорт 1014.6 953.1
05 15.06 штиль 0 н/о н/о +19.9 +16.4 80 +22 +22 комфорт 1014.3 953.0
06 15.06 В 2 н/о н/о +24.0 +13.8 53 +26 +26 жарко 1013.6 953.1 +17.9 +28.4
07 15.06 Ю 2 н/о н/о +24.9 +13.7 50 +27 +27 жарко 1013.6 953.2
08 15.06 Ю 3 н/о н/о +25.5 +15.0 52 +28 +28 жарко 1013.5 953.3
09 15.06 Ю 3 н/о н/о +26.2 +15.9 53 +29 +29 жарко 1013.2 953.2
10 15.06 ЮВ 3 н/о н/о +26.7 +15.5 50 +30 +30 душно 1012.8 952.9
11 15.06 Ю 2 н/о н/о +28.4 +15.0 44 +31 +31 душно 1012.3 952.7
12 15.06 ЮЗ 2 н/о н/о +29.8 +14.3 39 +32 +32 душно 1011.7 952.4
13 15.06 Ю 3 н/о н/о +28.9 +15.1 43 +31 +31 жарко 1011.5 952.1
14 15.06 Ю 3 н/о н/о +29.4 +12.8 36 +31 +31 жарко 1011.5 952.1
15 15.06 Ю 3 н/о н/о +28.9 +12.7 37 +30 +30 жарко 1010.5 951.1
16 15.06 ЮЗ 1 н/о н/о +29.5 +13.7 38 +31 +31 жарко 1010.0 950.7
17 15.06 Ю 2 н/о н/о +28.1 +16.7 50 +32 +32 душно 1009.8 950.4
18 15.06 Ю 1 н/о н/о +26.9 +17.1 55 +31 +31 душно 1010.2 950.5 +23.7 +30.6
19 15.06 Ю 1 н/о н/о +25.4 +16.3 57 +29 +29 душно 1010.7 950.7
20 15.06 З 1 н/о н/о +23.4 +17.2 68 +29 +29 душно 1011.6 951.2
21 15.06 штиль 0 н/о н/о +21.0 +17.4 80 +25 +25 комфорт 1012.3 951.3
22 15.06 штиль 0 н/о н/о +20.3 +17.7 85 +23 +23 комфорт 1013.0 951.9
23 15.06 штиль 0 н/о н/о +19.8 +17.8 88 +22 +22 комфорт 1013.4 952.1
00 16.06 СЗ 2 н/о н/о +20.0 +17.4 85 +23 +23 комфорт 1013.0 951.8
01 16.06 СЗ 1 н/о н/о +19.1 +16.6 85 +22 +22 комфорт 1013.0 951.6
02 16.06 СЗ 1 н/о н/о +18.1 +15.6 85 +19 +19 1013.0 951.4
03 16.06 З 2 н/о н/о +17.9 +14.4 80 +18 +18 1013.3 951.6
04 16.06 СЗ 2 н/о н/о +18.3 +14.4 78 +19 +19 1013.2 951.6
05 16.06 СЗ 1 н/о н/о +20.1 +14.4 70 +23 +23 комфорт 1012.8 951.6
06 16.06 СЗ 1 н/о н/о +22.2 +14.0 60 +25 +25 комфорт 1013.3 952.4 +17.0 +27.4
07 16.06 З 1 н/о н/о +24.0 +15.5 59 +27 +27 жарко 1013.5 953.0
08 16.06 СЗ 1 н/о н/о +25.5 +15.6 54 +29 +29 душно 1013.7 953.5
09 16.06 СЗ 1 н/о н/о +25.9 +15.0 51 +29 +29 душно 1014.2 954.0
10 16.06 С 1 н/о н/о +26.1 +15.5 52 +29 +29 жарко 1014.2 954.1
11 16.06 СЗ 3 н/о н/о +25.7 +14.5 50 +28 +28 жарко 1014.8 954.5
12 16.06 СЗ 3 н/о н/о +23.2 +13.9 56 +27 +27 душно 1015.1 954.3
13 16.06 штиль 0 н/о осадки н/о +20.2 +13.1 64 +22 +22 комфорт 1015.8 954.4 0.0
14 16.06 штиль 0 н/о н/о +21.6 +13.0 58 +24 +24 комфорт 1015.9 954.7
15 16.06 СЗ 3 н/о {осадки} н/о +23.7 +13.8 54 +26 +26 жарко 1014.7 954.0 0.0
16 16.06 СЗ 3 н/о н/о +22.0 +12.2 54 +24 +24 комфорт 1015.8 954.7
17 16.06 СЗ 2 н/о н/о +20.3 +12.0 59 +23 +23 комфорт 1017.5 956.0
18 16.06 СЗ 2 н/о {осадки} н/о +19.9 +12.1 61 +22 +22 комфорт 1016.9 955.3 +19.8 +26.6 0.0
19 16.06 СЗ 3 н/о н/о +19.8 +12.0 61 +22 +22 комфорт 1017.2 955.6
20 16.06 СЗ 3 н/о н/о +19.3 +12.3 64 +21 +21 комфорт 1018.3 956.5
21 16.06 СЗ 2 н/о н/о +18.8 +12.5 67 +20 +20 1019.2 957.3
22 16.06 СЗ 2 н/о н/о +18.2 +12.4 69 +19 +19 1019.4 957.3
23 16.06 СЗ 3 н/о н/о +18.0 +12.4 70 +18 +18 1018.7 956.6
00 17.06 СЗ 3 н/о н/о +17.9 +12.1 69 +18 +18 1019.2 957.1
01 17.06 СЗ 2 н/о н/о +17.4 +12.1 71 +18 +18 1019.1 956.9
02 17.06 СЗ 1 н/о н/о +16.5 +11.8 74 +17 +17 1019.8 957.3
03 17.06 СЗ 1 н/о н/о +16.5 +11.4 72 +17 +17 1019.6 957.1
04 17.06 СЗ 2 н/о н/о +17.2 +11.2 68 +18 +18 1019.6 957.3
05 17.06 З 3 н/о н/о +17.2 +11.2 68 +17 +17 1019.4 957.1
06 17.06 СЗ 3 н/о н/о +17.6 +11.6 68 +18 +18 1019.3 957.1 +16.4 +20.2
07 17.06 СЗ 1 н/о н/о +19.5 +12.5 64 +22 +22 комфорт 1019.2 957.4
08 17.06 СЗ 4 н/о н/о +20.9 +12.3 58 +23 +23 комфорт 1018.9 957.4
09 17.06 СЗ 3 н/о н/о +22.0 +13.1 57 +25 +25 комфорт 1018.8 957.5
10 17.06 СЗ 2 н/о н/о +22.1 +12.3 54 +25 +25 комфорт 1018.8 957.5
11 17.06 СЗ 2 н/о н/о +22.1 +13.4 58 +25 +25 комфорт 1018.8 957.6
12 17.06 СЗ 1 н/о н/о +23.5 +14.4 57 +26 +26 жарко 1018.2 957.3
13 17.06 СЗ 1 н/о н/о +23.1 +14.3 58 +27 +27 душно 1018.3 957.3
14 17.06 СЗ 1 н/о н/о +22.7 +14.2 59 +26 +26 жарко 1017.9 956.9
15 17.06 СЗ 1 н/о н/о +23.2 +14.2 57 +27 +27 душно 1017.3 956.4
16 17.06 СЗ 1 н/о н/о +21.9 +13.8 60 +25 +25 комфорт 1017.5 956.3
17 17.06 СЗ 1 н/о н/о +21.5 +13.9 62 +24 +24 комфорт 1017.5 956.2
18 17.06 СЗ 1 н/о н/о +20.5 +14.1 67 +24 +24 комфорт 1017.7 956.2 +17.5 +23.5
19 17.06 СЗ 1 н/о н/о +19.2 +14.0 72 +22 +22 комфорт 1018.0 956.2
20 17.06 штиль 0 н/о н/о +18.3 +14.0 76 +19 +19 1018.8 956.8
21 17.06 СЗ 1 н/о н/о +18.5 +13.5 73 +20 +20 1018.6 956.7
22 17.06 З 1 н/о н/о +17.0 +13.3 79 +18 +18 1018.8 956.5
23 17.06 З 2 н/о н/о +16.4 +13.3 82 +17 +17 1018.8 956.4
00 18.06 штиль 0 н/о н/о +15.8 +13.1 84 +16 +16 1018.8 956.3
01 18.06 штиль 0 н/о н/о +15.2 +12.7 85 +15 +15 1018.4 955.8
02 18.06 СЗ 2 н/о н/о +15.5 +13.0 85 +15 +15 1017.9 955.4
03 18.06 СЗ 2 н/о н/о +14.7 +12.7 88 +14 +14 1018.1 955.4
04 18.06 штиль 0 н/о н/о +14.3 +12.8 91 +14 +14 1018.6 955.8
05 18.06 СЗ 1 н/о н/о +15.9 +13.3 85 +17 +17 1018.2 955.7
06 18.06 З 1 н/о н/о +19.1 +13.7 71 +21 +21 комфорт 1017.4 955.7 +14.2 +20.6
07 18.06 В 1 н/о н/о +21.7 +14.3 63 +25 +25 комфорт 1017.0 955.8
08 18.06 ЮВ 2 н/о н/о +22.3 +13.1 56 +25 +25 комфорт 1016.9 955.8
09 18.06 В 2 н/о н/о +23.3 +14.0 56 +27 +27 душно 1016.4 955.6
10 18.06 ЮВ 1 н/о н/о +23.8 +13.6 53 +26 +26 жарко 1016.1 955.4
11 18.06 В 2 н/о н/о +23.5 +14.2 56 +26 +26 жарко 1015.9 955.1
12 18.06 В 1 н/о н/о +25.3 +14.1 50 +28 +28 жарко 1014.8 954.5
13 18.06 ЮВ 3 н/о н/о +23.7 +13.8 54 +26 +26 жарко 1015.2 954.5
14 18.06 ЮВ 3 н/о н/о +23.1 +14.3 58 +27 +27 душно 1014.9 954.1
15 18.06 В 2 н/о н/о +23.1 +14.1 57 +27 +27 душно 1014.3 953.6
16 18.06 ЮВ 1 н/о н/о +23.5 +14.8 58 +26 +26 жарко 1013.8 953.2
17 18.06 штиль 0 н/о н/о +22.4 +16.0 67 +27 +27 душно 1014.1 953.3
18 18.06 штиль 0 н/о н/о +21.3 +15.7 70 +25 +25 комфорт 1014.5 953.4 +18.7 +26.0
19 18.06 штиль 0 н/о н/о +18.7 +15.8 83 +20 +20 1015.1 953.5
20 18.06 штиль 0 н/о н/о +17.8 +15.3 85 +18 +18 1015.7 953.8
21 18.06 СЗ 1 н/о н/о +16.5 +15.1 91 +17 +17 1015.7 953.6
22 18.06 штиль 0 н/о н/о +16.0 +14.3 90 +16 +16 1015.4 953.2
23 18.06 штиль 0 н/о н/о +15.4 +14.2 93 +15 +15 1015.6 953.2
00 19.06 штиль 0 н/о н/о +15.2 +14.2 94 +15 +15 1015.5 953.1
01 19.06 штиль 0 н/о н/о +14.7 +14.2 97 +14 +14 1015.2 952.7
02 19.06 штиль 0 н/о н/о +14.4 +14.4 100 +14 +14 1014.8 952.3
03 19.06 штиль 0 н/о н/о +13.9 +13.6 98 +13 +13 1014.8 952.1
04 19.06 штиль 0 н/о н/о +13.6 +13.6 100 +13 +13 1014.6 951.9

 

Местоположение метеостанции Крумбах (Австрия): широта 47.53 долгота 16.19 высота над уровнем моря 542 м.

В архиве по умолчанию представлена погода в Крумбахе за последнюю неделю. Архивные данные за месяц целиком и за предыдущие месяцы, начиная с января 2011 года, Вы можете получить, выбрав интересующий диапазон дат из раскрывающегося списка и нажав кнопку "Ввод!".


*Определитесь, кто Вы:
робот инопланетянин человек

Внимание! Время в таблицах - всемирное. Для получения местного времени необходимо прибавить поправку, которая равна 1 ч.

Смотрите также архив погоды в соседних городах и на ближайших метеорологических станциях:

Погода в Мёнихкирхене (Австрия) (12 км)
Погода в Бад-Тацмансдорфе (Австрия) (22 км)
Погода в Хиршенкогеле (Австрия) (29 км)
Погода в Семмеринге (Австрия) (29 км)
Погода в Хартберге (Австрия) (32 км)
Погода в Райхенау-ан-дер-Раксе (Австрия) (33 км)
Погода в Винер-Нойштадт (Австрия) (33 км)
Погода в Хоэ-Ванде (Австрия) (34 км)
Погода в Шопроне (Венгрия) (35 км)
Погода в Луцмансбурге (Австрия) (35 км)

Пояснения к столбцам:

Ветер - указаны скорость ветра в м/с - средняя за 10 мин, порывы в срок и между сроками (в фигурных скобках) и направление, откуда дует ветер: С - северный, СВ - северо-восточный, В - восточный, ЮВ - юго-восточный, Ю - южный, ЮЗ - юго-западный, З - западный, СЗ - северо-западный.
Видимость - горизонтальная дальность видимости в метрах или километрах. При видимости от 1 до 10 км при отсутствии осадков обычно наблюдается дымка, при ухудшении видимости до 1 км и менее - туман. В сухую погоду видимость может ухудшаться дымом, пылью или мглою.
Явления - указаны атмосферные явления, наблюдавшиеся в срок или в последний час перед сроком; фигурными скобками обозначены явления, наблюдавшиеся между сроками (за 1-3 часа до срока); квадратными скобками обозначены град или гололедные отложения с указанием их диаметра в мм.
Облачность - указаны через наклонную черту общая и нижняя облачность в баллах и высота нижней границы облаков в метрах; квадратными скобками обозначены формы облаков: Ci - перистые, Cs - перисто-слоистые, Cc - перисто-кучевые, Ac - высококучевые, As - высокослоистые, Sc - слоисто-кучевые, Ns - слоисто-дождевые, Cu - кучевые, Cb - кучево-дождевые. Подробнее классификацию облаков см. в Атласе облаков (PDF).
T - Температура воздуха - температура, измеренная на высоте 2 м над землей.
Td - Температура точки росы - температура, при понижении до которой содержащийся в воздухе водяной пар достигнет насыщения.
f - Относительная влажность воздуха - влажноcть воздуха, измеренная на высоте 2 м над землей.
Te - Эффективная температура - температура, которую ощущает одетый по сезону человек в тени. Характеристика душности погоды. При расчете учитывается влияние влажности воздуха и скорости ветра на теплоощущения человека.
Tes - Эффективная температура на солнце - температура, которую ощущает человек, с поправкой на солнечный нагрев. Характеристика знойности погоды. Зависит от высоты солнца над горизонтом, облачности и скорости ветра. Ночью, в пасмурную погоду, а также при ветре 12 м/с и более поправка равна нулю.
P - Атмосферное давление - приведенное к уровню моря атмосферное давление.
Po - Атмосферное давление - измеренное на уровне метеостанции атмосферное давление.
Tmin - Минимальная температура - минимум температуры воздуха на высоте 2 м над землей.
Tmax - Максимальная температура - максимум температуры воздуха на высоте 2 м над землей.
R - Количество осадков - Количество выпавших осадков за период времени, мм. При наведении курсора мыши на число - период времени, за который выпало указанное количество осадков.
R24 - Количество осадков - Количество выпавших осадков за 24 часа, мм.
S - Снежный покров - Высота снежного покрова, см. При наведении курсора мыши на число - состояние снежного покрова и степень покрытия местности в баллах.